Find Lemur-2-Amanda-Svante

NORAD ID: 48269 Int'l Des: 2021-034 Owner: SPIRE Country: US Constellation: spire operational
LEOCIRCULARRETROGRADESSO

实时位置

正在加载3D地球...

关于 Lemur-2-Amanda-Svante

正在加载描述...

即将过境

Passes for default location (London). Set your location on the main map for personalized predictions.

高度历史

Loading altitude history...

两行轨道根数

1 48269U 21034B 26105.73680959 .00015121 00000-0 51069-3 0 9994
2 48269 97.5792 182.5520 0004376 119.3614 240.8063 15.30759780271499
Epoch: Apr 15, 2026 • Age: 12 hours

当前状态

高度 496.4 km
速度 7.61 km/s
星下点 -51.32°S, 101.93°W
发射日期 Apr 29, 2021
运行时间 4.9 years
类型 other

技术详情

分类 Payload
质量 4.60 kg
干质量 4.60 kg
总质量 4.60 kg
长度 0.30 m
直径 0.10 m
跨度 0.30 m
形状 Box+2 pan
制造商 SPIREG
平台类型 Cubesat 3U
阶段状态 In Orbit
所有者/国家 SPIRE/US

Most Searched